IRIDIUM 160 1 43569U 18061A 21019.12289955 .00000122 00000-0 36340-4 0 9992 2 43569 86.4002 162.1709 0002308 98.1262 262.0196 14.34215805130289 IRIDIUM 166 1 43570U 18061B 21018.86919570 .00000074 00000-0 19265-4 0 9990 2 43570 86.4002 162.2547 0001768 96.5586 263.5812 14.34216324130279 IRIDIUM 158 1 43571U 18061C 21019.11655730 .00000120 00000-0 35874-4 0 9991 2 43571 86.4002 162.1592 0002006 102.8494 257.2926 14.34219215130283 IRIDIUM 165 1 43572U 18061D 21018.86285092 .00000086 00000-0 23658-4 0 9991 2 43572 86.4004 162.2751 0001942 102.8948 257.2464 14.34216513130269 IRIDIUM 155 1 43573U 18061E 21019.10387235 .00000140 00000-0 42940-4 0 9998 2 43573 86.4000 162.1381 0001785 79.5727 280.5669 14.34219334130275 IRIDIUM 154 1 43574U 18061F 21019.15461831 .00000145 00000-0 44858-4 0 9994 2 43574 86.4004 162.1566 0002305 97.1848 262.9609 14.34216625130328 IRIDIUM 163 1 43575U 18061G 21018.85651766 .00000079 00000-0 21046-4 0 9999 2 43575 86.4001 162.2565 0001876 110.9999 249.1397 14.34216126130258 IRIDIUM 156 1 43576U 18061H 21019.11021112 .00000105 00000-0 30520-4 0 9993 2 43576 86.4000 162.1554 0001639 96.4851 263.6531 14.34215692130277 IRIDIUM 164 1 43577U 18061J 21019.09118465 .00000103 00000-0 29777-4 0 9999 2 43577 86.4002 162.1737 0002178 99.9675 260.1767 14.34215529130322 IRIDIUM 159 1 43578U 18061K 21018.85017360 .00000085 00000-0 23205-4 0 9994 2 43578 86.4001 162.2526 0002193 97.4406 262.7039 14.34217837130257